Location: Huesca
(42.1318°N, 0.4078°W)
Time: 21:05:46
(UTC+02:00)

CUTE 1.7 + AOD 2 - Pass Details

Date: 28 April 2024
Orbit: 546 x 560 km, 97.8° (Epoch: 16 June)

Event Time Altitude Azimuth Distance (km) Brightness Sun altitude
Rises 05:30:15 0° 11° (N) 2,726 ? -15.6°
Reaches altitude 10° 05:32:23 10° 11° (N) 1,826 ? -15.3°
Maximum altitude 05:36:19 82° 285° (WNW) 557 ? -14.7°
Enters shadow 05:39:10 18° 198° (SSW) 1,375 ? -14.3°
